| time (UTC) | temp F | wind direction | speed MPH | gust MPH | rain 1hr in | rain 24hr in | rain mn in | humidity % | barometer mb |
| 20260503041009 | 34 | 293 | 0.0 | 0.0 | 0.00 | 0.01 | 0.00 | 80 | 1012.9 |
| 20260503040509 | 34 | 293 | 0.0 | 1.0 | 0.00 | 0.01 | 0.00 | 79 | 1012.9 |
| 20260503040008 | 34 | 293 | 0.0 | 1.0 | 0.00 | 0.01 | 0.00 | 78 | 1012.8 |
| 20260503035509 | 34 | 292 | 0.0 | 2.0 | 0.00 | 0.03 | 0.01 | 78 | 1012.8 |
| 20260503035006 | 35 | 292 | 0.0 | 2.0 | 0.00 | 0.03 | 0.01 | 78 | 1012.8 |
| 20260503034506 | 35 | 290 | 0.0 | 2.0 | 0.00 | 0.03 | 0.01 | 77 | 1012.8 |
| 20260503034004 | 35 | 308 | 0.0 | 2.0 | 0.00 | 0.03 | 0.01 | 76 | 1012.8 |
| 20260503033506 | 35 | 308 | 0.0 | 3.0 | 0.00 | 0.03 | 0.01 | 76 | 1012.9 |
| 20260503033003 | 35 | 314 | 0.0 | 3.0 | 0.00 | 0.03 | 0.01 | 76 | 1012.9 |
| 20260503032503 | 35 | 290 | 0.0 | 2.0 | 0.00 | 0.03 | 0.01 | 75 | 1012.8 |
| 20260503032005 | 35 | 291 | 0.0 | 2.0 | 0.00 | 0.03 | 0.01 | 75 | 1012.8 |
| 20260503031503 | 36 | 278 | 0.0 | 4.0 | 0.00 | 0.03 | 0.01 | 75 | 1012.9 |
| 20260503031001 | 36 | 299 | 0.0 | 4.0 | 0.00 | 0.03 | 0.01 | 75 | 1012.8 |
| 20260503030600 | 36 | 284 | 1.0 | 3.0 | 0.00 | 0.03 | 0.01 | 74 | 1012.9 |
| 20260503030101 | 36 | 293 | 0.0 | 3.0 | 0.00 | 0.03 | 0.01 | 74 | 1012.8 |
| 20260503025600 | 36 | 299 | 1.0 | 3.0 | 0.00 | 0.05 | 0.01 | 74 | 1012.9 |
| 20260503025059 | 36 | 287 | 0.0 | 5.0 | 0.00 | 0.05 | 0.01 | 74 | 1012.9 |
| 20260503024559 | 36 | 290 | 3.0 | 5.0 | 0.00 | 0.05 | 0.01 | 74 | 1012.9 |
| 20260503024059 | 36 | 294 | 1.0 | 10.0 | 0.00 | 0.05 | 0.01 | 73 | 1012.9 |
| 20260503023559 | 37 | 297 | 3.0 | 10.0 | 0.00 | 0.05 | 0.01 | 73 | 1012.9 |
| 20260503023101 | 36 | 315 | 2.0 | 6.0 | 0.00 | 0.05 | 0.01 | 74 | 1013.0 |
| 20260503022558 | 36 | 263 | 2.0 | 6.0 | 0.00 | 0.05 | 0.01 | 75 | 1013.0 |
| 20260503022057 | 36 | 276 | 2.0 | 6.0 | 0.00 | 0.05 | 0.01 | 75 | 1012.9 |
| 20260503021556 | 37 | 291 | 3.0 | 6.0 | 0.00 | 0.05 | 0.01 | 73 | 1012.9 |
| 20260503021055 | 37 | 283 | 2.0 | 5.0 | 0.00 | 0.05 | 0.01 | 73 | 1012.9 |
| 20260503020555 | 37 | 288 | 1.0 | 5.0 | 0.00 | 0.05 | 0.01 | 73 | 1012.9 |
| 20260503020055 | 37 | 309 | 1.0 | 3.0 | 0.00 | 0.05 | 0.01 | 72 | 1012.9 |
| 20260503015556 | 37 | 288 | 0.0 | 3.0 | 0.00 | 0.07 | 0.01 | 73 | 1012.9 |
| 20260503015055 | 37 | 311 | 0.0 | 3.0 | 0.00 | 0.07 | 0.01 | 73 | 1012.9 |
| 20260503014554 | 37 | 290 | 0.0 | 2.0 | 0.00 | 0.07 | 0.01 | 74 | 1012.9 |
| 20260503014055 | 37 | 286 | 0.0 | 2.0 | 0.00 | 0.07 | 0.01 | 73 | 1012.9 |
| 20260503013555 | 37 | 286 | 0.0 | 2.0 | 0.00 | 0.07 | 0.01 | 72 | 1013.0 |
| 20260503013056 | 37 | 287 | 0.0 | 1.0 | 0.00 | 0.07 | 0.01 | 72 | 1012.9 |
| 20260503012552 | 38 | 287 | 0.0 | 2.0 | 0.00 | 0.07 | 0.01 | 72 | 1012.9 |
| 20260503012011 | 38 | 287 | 0.0 | 2.0 | 0.00 | 0.07 | 0.01 | 72 | 1012.9 |
| 20260503011521 | 38 | 268 | 0.0 | 3.0 | 0.00 | 0.07 | 0.01 | 72 | 1012.9 |
| 20260503011007 | 38 | 286 | 0.0 | 1.0 | 0.00 | 0.07 | 0.01 | 71 | 1012.9 |
| 20260503010517 | 38 | 285 | 0.0 | 2.0 | 0.00 | 0.07 | 0.01 | 71 | 1012.8 |
| 20260503010019 | 38 | 284 | 0.0 | 5.0 | 0.00 | 0.07 | 0.01 | 71 | 1012.8 |
| 20260503005510 | 38 | 294 | 1.0 | 5.0 | 0.00 | 0.07 | 0.01 | 71 | 1012.7 |
| 20260503005017 | 38 | 302 | 2.0 | 6.0 | 0.00 | 0.07 | 0.01 | 70 | 1012.7 |
| 20260503004527 | 39 | 295 | 1.0 | 6.0 | 0.00 | 0.07 | 0.01 | 70 | 1012.6 |
| 20260503004012 | 39 | 302 | 0.0 | 5.0 | 0.00 | 0.07 | 0.01 | 69 | 1012.7 |
| 20260503003523 | 39 | 262 | 1.0 | 6.0 | 0.00 | 0.07 | 0.01 | 69 | 1012.6 |
| 20260503003008 | 39 | 312 | 0.0 | 8.0 | 0.00 | 0.07 | 0.01 | 68 | 1012.6 |
| 20260503002519 | 39 | 294 | 1.0 | 8.0 | 0.00 | 0.07 | 0.01 | 68 | 1012.6 |
| 20260503002017 | 40 | 330 | 1.0 | 5.0 | 0.00 | 0.07 | 0.01 | 67 | 1012.5 |
| 20260503001513 | 40 | 257 | 0.0 | 2.0 | 0.00 | 0.07 | 0.01 | 67 | 1012.5 |
| 20260503001014 | 40 | 236 | 0.0 | 3.0 | 0.00 | 0.07 | 0.01 | 66 | 1012.4 |
| 20260503000525 | 41 | 300 | 0.0 | 3.0 | 0.00 | 0.07 | 0.01 | 64 | 1012.4 |
| 20260503000015 | 41 | 319 | 0.0 | 7.0 | 0.00 | 0.07 | 0.01 | 63 | 1012.3 |
| 20260502235523 | 42 | 314 | 0.0 | 8.0 | 0.00 | 0.07 | 0.01 | 63 | 1012.3 |
| 20260502235009 | 42 | 297 | 1.0 | 6.0 | 0.00 | 0.07 | 0.01 | 63 | 1012.2 |
| 20260502234518 | 43 | 293 | 2.0 | 5.0 | 0.00 | 0.07 | 0.01 | 61 | 1012.2 |
| 20260502234002 | 43 | 273 | 1.0 | 6.0 | 0.00 | 0.07 | 0.01 | 60 | 1012.1 |
| 20260502233517 | 43 | 293 | 1.0 | 7.0 | 0.00 | 0.07 | 0.01 | 60 | 1012.2 |
| 20260502233021 | 43 | 280 | 3.0 | 7.0 | 0.00 | 0.07 | 0.01 | 60 | 1012.1 |
| 20260502232511 | 42 | 307 | 4.0 | 7.0 | 0.00 | 0.07 | 0.01 | 60 | 1012.1 |
| 20260502232016 | 42 | 285 | 3.0 | 9.0 | 0.00 | 0.07 | 0.01 | 60 | 1012.1 |
| 20260502231512 | 42 | 294 | 3.0 | 9.0 | 0.00 | 0.07 | 0.01 | 59 | 1012.1 |
| 20260502231011 | 43 | 298 | 5.0 | 13.0 | 0.00 | 0.07 | 0.01 | 59 | 1012.0 |
| 20260502230522 | 43 | 290 | 3.0 | 13.0 | 0.00 | 0.07 | 0.01 | 58 | 1011.9 |
| 20260502230017 | 43 | 295 | 6.0 | 11.0 | 0.00 | 0.07 | 0.01 | 58 | 1012.0 |
| 20260502225523 | 43 | 276 | 4.0 | 12.0 | 0.00 | 0.07 | 0.01 | 59 | 1011.9 |
| 20260502225009 | 43 | 290 | 7.0 | 11.0 | 0.00 | 0.07 | 0.01 | 57 | 1011.9 |
| 20260502224517 | 43 | 308 | 7.0 | 12.0 | 0.00 | 0.07 | 0.01 | 57 | 1011.9 |
| 20260502224019 | 43 | 309 | 6.0 | 16.0 | 0.00 | 0.07 | 0.01 | 57 | 1011.9 |
| 20260502223511 | 43 | 300 | 8.0 | 16.0 | 0.00 | 0.07 | 0.01 | 56 | 1011.8 |
| 20260502223018 | 43 | 301 | 6.0 | 13.0 | 0.00 | 0.07 | 0.01 | 55 | 1011.8 |
| 20260502222509 | 43 | 288 | 1.0 | 6.0 | 0.00 | 0.07 | 0.01 | 55 | 1011.8 |
| 20260502222016 | 43 | 300 | 1.0 | 6.0 | 0.00 | 0.07 | 0.01 | 55 | 1011.8 |
| 20260502221508 | 44 | 312 | 3.0 | 13.0 | 0.00 | 0.07 | 0.01 | 57 | 1011.7 |
| 20260502221018 | 44 | 287 | 2.0 | 13.0 | 0.00 | 0.07 | 0.01 | 54 | 1011.8 |
| 20260502220507 | 44 | 309 | 8.0 | 12.0 | 0.00 | 0.07 | 0.01 | 53 | 1011.7 |
| 20260502220014 | 44 | 297 | 5.0 | 10.0 | 0.00 | 0.07 | 0.01 | 56 | 1011.7 |
| 20260502215526 | 44 | 297 | 3.0 | 10.0 | 0.00 | 0.07 | 0.01 | 57 | 1011.7 |
| 20260502215014 | 44 | 307 | 2.0 | 7.0 | 0.00 | 0.07 | 0.01 | 57 | 1011.6 |
| 20260502214535 | 44 | 269 | 2.0 | 13.0 | 0.00 | 0.07 | 0.01 | 56 | 1011.7 |
| 20260502214014 | 44 | 285 | 3.0 | 13.0 | 0.00 | 0.07 | 0.01 | 58 | 1011.8 |
| 20260502213527 | 44 | 317 | 2.0 | 8.0 | 0.00 | 0.07 | 0.01 | 58 | 1011.7 |
| 20260502213015 | 44 | 294 | 4.0 | 11.0 | 0.00 | 0.07 | 0.01 | 57 | 1011.7 |
| 20260502212527 | 44 | 298 | 4.0 | 9.0 | 0.00 | 0.07 | 0.01 | 56 | 1011.6 |
| 20260502212012 | 44 | 267 | 4.0 | 8.0 | 0.00 | 0.07 | 0.01 | 55 | 1011.6 |
| 20260502211528 | 45 | 294 | 1.0 | 7.0 | 0.00 | 0.07 | 0.01 | 57 | 1011.4 |
| 20260502211011 | 45 | 340 | 2.0 | 9.0 | 0.00 | 0.07 | 0.01 | 56 | 1011.5 |
| 20260502210524 | 45 | 317 | 2.0 | 9.0 | 0.00 | 0.07 | 0.01 | 56 | 1011.4 |
| 20260502210025 | 45 | 300 | 3.0 | 8.0 | 0.00 | 0.07 | 0.01 | 54 | 1011.4 |
| 20260502205524 | 45 | 315 | 3.0 | 9.0 | 0.00 | 0.07 | 0.01 | 54 | 1011.3 |
| 20260502205014 | 45 | 291 | 6.0 | 9.0 | 0.00 | 0.07 | 0.01 | 54 | 1011.3 |
| 20260502204524 | 45 | 287 | 1.0 | 10.0 | 0.00 | 0.07 | 0.01 | 56 | 1011.3 |
| 20260502204014 | 46 | 295 | 6.0 | 10.0 | 0.00 | 0.07 | 0.01 | 57 | 1011.3 |
| 20260502203526 | 45 | 280 | 2.0 | 14.0 | 0.00 | 0.07 | 0.01 | 56 | 1011.4 |
| 20260502203014 | 45 | 266 | 7.0 | 14.0 | 0.00 | 0.07 | 0.01 | 54 | 1011.4 |
| 20260502202530 | 45 | 276 | 7.0 | 12.0 | 0.00 | 0.07 | 0.01 | 53 | 1011.4 |
| 20260502202012 | 45 | 335 | 6.0 | 16.0 | 0.00 | 0.07 | 0.01 | 52 | 1011.5 |
| 20260502201525 | 46 | 203 | 3.0 | 16.0 | 0.00 | 0.07 | 0.01 | 53 | 1011.5 |
| 20260502201012 | 46 | 315 | 8.0 | 16.0 | 0.00 | 0.07 | 0.01 | 54 | 1011.6 |
| 20260502200525 | 46 | 274 | 7.0 | 16.0 | 0.00 | 0.07 | 0.01 | 56 | 1011.5 |
| 20260502200012 | 46 | 300 | 3.0 | 9.0 | 0.00 | 0.07 | 0.01 | 54 | 1011.5 |
| 20260502195524 | 46 | 326 | 2.0 | 10.0 | 0.00 | 0.07 | 0.01 | 58 | 1011.7 |
| 20260502195009 | 45 | 292 | 2.0 | 9.0 | 0.00 | 0.07 | 0.01 | 54 | 1011.7 |
| 20260502194520 | 45 | 294 | 4.0 | 10.0 | 0.00 | 0.07 | 0.01 | 54 | 1011.8 |
| 20260502194003 | 45 | 287 | 5.0 | 10.0 | 0.00 | 0.07 | 0.01 | 55 | 1011.8 |
| 20260502193516 | 46 | 287 | 3.0 | 10.0 | 0.00 | 0.07 | 0.01 | 55 | 1011.9 |
| 20260502193018 | 46 | 317 | 5.0 | 10.0 | 0.00 | 0.07 | 0.01 | 54 | 1012.0 |
| 20260502192509 | 46 | 297 | 4.0 | 10.0 | 0.00 | 0.07 | 0.01 | 53 | 1012.1 |
| 20260502192017 | 47 | 291 | 6.0 | 12.0 | 0.00 | 0.07 | 0.01 | 56 | 1012.0 |
| 20260502191509 | 47 | 269 | 7.0 | 12.0 | 0.00 | 0.07 | 0.01 | 52 | 1012.0 |
| 20260502191014 | 48 | 318 | 2.0 | 17.0 | 0.00 | 0.07 | 0.01 | 59 | 1012.0 |
| 20260502190526 | 47 | 300 | 8.0 | 17.0 | 0.00 | 0.07 | 0.01 | 57 | 1012.0 |
| 20260502190021 | 46 | 278 | 9.0 | 14.0 | 0.00 | 0.07 | 0.01 | 57 | 1012.0 |
| 20260502185526 | 45 | 277 | 5.0 | 16.0 | 0.00 | 0.07 | 0.01 | 52 | 1012.1 |
| 20260502185012 | 46 | 290 | 9.0 | 16.0 | 0.00 | 0.07 | 0.01 | 57 | 1012.1 |
| 20260502184532 | 46 | 269 | 8.0 | 15.0 | 0.00 | 0.07 | 0.01 | 53 | 1012.1 |
| 20260502184018 | 46 | 278 | 7.0 | 15.0 | 0.00 | 0.07 | 0.01 | 53 | 1012.2 |
| 20260502183524 | 45 | 293 | 8.0 | 14.0 | 0.00 | 0.07 | 0.01 | 53 | 1012.1 |
| 20260502183011 | 46 | 309 | 10.0 | 16.0 | 0.00 | 0.07 | 0.01 | 53 | 1012.2 |
| 20260502182524 | 45 | 281 | 8.0 | 16.0 | 0.00 | 0.07 | 0.01 | 55 | 1012.0 |
| 20260502182013 | 45 | 285 | 9.0 | 14.0 | 0.00 | 0.07 | 0.01 | 53 | 1012.1 |
| 20260502181521 | 45 | 300 | 2.0 | 16.0 | 0.00 | 0.07 | 0.01 | 53 | 1012.0 |
| 20260502181009 | 45 | 328 | 4.0 | 15.0 | 0.00 | 0.07 | 0.01 | 53 | 1012.1 |
| 20260502180521 | 46 | 338 | 9.0 | 15.0 | 0.00 | 0.07 | 0.01 | 50 | 1012.0 |
| 20260502164016 | 45 | 289 | 9.0 | 19.0 | 0.00 | 0.07 | 0.01 | 58 | 1012.0 |
| 20260502163528 | 45 | 285 | 11.0 | 20.0 | 0.00 | 0.07 | 0.01 | 57 | 1012.2 |
| 20260502163019 | 45 | 300 | 10.0 | 18.0 | 0.00 | 0.07 | 0.01 | 60 | 1012.0 |
| 20260502162529 | 45 | 293 | 11.0 | 18.0 | 0.00 | 0.07 | 0.01 | 61 | 1012.0 |
| 20260502162014 | 45 | 281 | 9.0 | 15.0 | 0.00 | 0.07 | 0.01 | 64 | 1012.0 |
| 20260502161526 | 45 | 276 | 9.0 | 14.0 | 0.00 | 0.07 | 0.01 | 61 | 1012.2 |
| 20260502161011 | 45 | 306 | 8.0 | 12.0 | 0.00 | 0.07 | 0.01 | 62 | 1012.2 |
| 20260502160528 | 45 | 297 | 8.0 | 17.0 | 0.00 | 0.07 | 0.01 | 61 | 1012.0 |
| 20260502152016 | 44 | 302 | 1.0 | 7.0 | 0.00 | 0.07 | 0.01 | 73 | 1012.4 |
| 20260502151527 | 43 | 312 | 1.0 | 12.0 | 0.00 | 0.07 | 0.01 | 71 | 1012.4 |
| 20260502151011 | 43 | 297 | 8.0 | 12.0 | 0.00 | 0.07 | 0.01 | 69 | 1012.3 |
| 20260502150523 | 44 | 269 | 3.0 | 11.0 | 0.00 | 0.07 | 0.01 | 67 | 1012.3 |
| 20260502130525 | 40 | 295 | 4.0 | 8.0 | 0.00 | 0.07 | 0.01 | 84 | 1012.9 |
| 20260502123520 | 39 | 288 | 4.0 | 11.0 | 0.00 | 0.07 | 0.01 | 86 | 1012.4 |
| 20260502123012 | 39 | 277 | 3.0 | 12.0 | 0.00 | 0.07 | 0.01 | 87 | 1012.5 |
| 20260502122518 | 39 | 288 | 4.0 | 9.0 | 0.00 | 0.07 | 0.01 | 88 | 1012.4 |
| 20260502122022 | 39 | 285 | 4.0 | 10.0 | 0.00 | 0.07 | 0.01 | 87 | 1012.4 |
| 20260502121516 | 39 | 294 | 6.0 | 13.0 | 0.00 | 0.07 | 0.01 | 87 | 1012.4 |
| 20260502121022 | 39 | 290 | 7.0 | 14.0 | 0.00 | 0.07 | 0.01 | 88 | 1012.5 |
| 20260502120529 | 39 | 304 | 5.0 | 15.0 | 0.00 | 0.07 | 0.01 | 89 | 1012.5 |
| 20260502115532 | 39 | 297 | 6.0 | 10.0 | 0.00 | 0.07 | 0.01 | 90 | 1012.5 |
| 20260502115031 | 38 | 295 | 5.0 | 10.0 | 0.00 | 0.07 | 0.01 | 89 | 1012.4 |
| 20260502114544 | 38 | 288 | 6.0 | 10.0 | 0.00 | 0.07 | 0.01 | 90 | 1012.4 |
| 20260502114031 | 38 | 298 | 6.0 | 10.0 | 0.00 | 0.07 | 0.01 | 90 | 1012.3 |
| 20260502113531 | 38 | 288 | 4.0 | 9.0 | 0.00 | 0.07 | 0.01 | 90 | 1012.4 |
| 20260502113031 | 38 | 291 | 4.0 | 9.0 | 0.00 | 0.07 | 0.01 | 90 | 1012.4 |
| 20260502112529 | 38 | 302 | 5.0 | 10.0 | 0.00 | 0.07 | 0.01 | 91 | 1012.4 |
| 20260502112031 | 38 | 274 | 6.0 | 12.0 | 0.00 | 0.07 | 0.01 | 91 | 1012.4 |
| 20260502111529 | 38 | 304 | 7.0 | 12.0 | 0.00 | 0.07 | 0.01 | 91 | 1012.3 |
| 20260502111028 | 38 | 288 | 4.0 | 9.0 | 0.00 | 0.07 | 0.01 | 92 | 1012.2 |
| 20260502110527 | 38 | 297 | 6.0 | 11.0 | 0.00 | 0.07 | 0.01 | 92 | 1012.1 |
| 20260502110027 | 38 | 291 | 5.0 | 11.0 | 0.00 | 0.07 | 0.01 | 92 | 1012.1 |
| 20260502105526 | 38 | 286 | 7.0 | 11.0 | 0.00 | 0.07 | 0.01 | 92 | 1012.1 |
| 20260502105025 | 38 | 288 | 6.0 | 11.0 | 0.00 | 0.07 | 0.01 | 92 | 1012.1 |
| 20260502104524 | 38 | 297 | 2.0 | 10.0 | 0.00 | 0.07 | 0.01 | 93 | 1012.0 |
| 20260502104023 | 38 | 297 | 4.0 | 10.0 | 0.00 | 0.07 | 0.01 | 93 | 1012.0 |
| 20260502103522 | 38 | 289 | 2.0 | 9.0 | 0.00 | 0.07 | 0.01 | 93 | 1011.9 |
| 20260502103023 | 38 | 300 | 5.0 | 9.0 | 0.00 | 0.07 | 0.01 | 93 | 1011.8 |
| 20260502102522 | 38 | 298 | 5.0 | 9.0 | 0.00 | 0.07 | 0.01 | 93 | 1011.8 |
| 20260502102021 | 38 | 277 | 3.0 | 6.0 | 0.00 | 0.07 | 0.01 | 93 | 1011.8 |
| 20260502101520 | 38 | 297 | 1.0 | 5.0 | 0.00 | 0.07 | 0.01 | 93 | 1011.7 |
| 20260502101019 | 38 | 297 | 3.0 | 5.0 | 0.00 | 0.07 | 0.01 | 93 | 1011.6 |
| 20260502100518 | 38 | 288 | 1.0 | 8.0 | 0.00 | 0.07 | 0.01 | 93 | 1011.6 |
| 20260502091513 | 38 | 288 | 5.0 | 10.0 | 0.00 | 0.07 | 0.01 | 94 | 1011.3 |
| 20260502091011 | 38 | 317 | 5.0 | 10.0 | 0.00 | 0.07 | 0.01 | 94 | 1011.2 |
| 20260502090511 | 38 | 302 | 2.0 | 4.0 | 0.01 | 0.07 | 0.01 | 94 | 1011.2 |
| 20260502071055 | 42 | 278 | 2.0 | 7.0 | 0.00 | 0.06 | 0.00 | 89 | 1010.7 |
| 20260502070553 | 42 | 275 | 2.0 | 7.0 | 0.00 | 0.06 | 0.00 | 89 | 1010.7 |
| 20260502065552 | 42 | 298 | 3.0 | 6.0 | 0.00 | 0.06 | 0.00 | 89 | 1010.8 |
| 20260502065051 | 42 | 280 | 1.0 | 6.0 | 0.00 | 0.06 | 0.00 | 89 | 1010.8 |
| 20260502064615 | 42 | 278 | 4.0 | 6.0 | 0.00 | 0.06 | 0.00 | 89 | 1010.8 |
| 20260502064050 | 42 | 273 | 3.0 | 8.0 | 0.00 | 0.06 | 0.00 | 89 | 1010.8 |
| 20260502063550 | 42 | 269 | 3.0 | 8.0 | 0.00 | 0.06 | 0.00 | 89 | 1010.9 |
| 20260502063104 | 42 | 286 | 2.0 | 7.0 | 0.00 | 0.06 | 0.00 | 89 | 1011.0 |
| 20260502062552 | 42 | 295 | 4.0 | 7.0 | 0.00 | 0.06 | 0.00 | 89 | 1011.0 |
| 20260502062049 | 42 | 242 | 3.0 | 6.0 | 0.00 | 0.06 | 0.00 | 89 | 1011.0 |
| 20260502061548 | 42 | 304 | 1.0 | 8.0 | 0.00 | 0.06 | 0.00 | 89 | 1011.0 |
| 20260502061047 | 42 | 301 | 4.0 | 9.0 | 0.00 | 0.06 | 0.00 | 89 | 1011.2 |
| 20260502060549 | 42 | 263 | 5.0 | 9.0 | 0.00 | 0.06 | 0.00 | 89 | 1011.2 |
| 20260502060048 | 42 | 276 | 4.0 | 6.0 | 0.00 | 0.06 | 0.00 | 89 | 1011.1 |
| 20260502055548 | 42 | 279 | 3.0 | 6.0 | 0.00 | 0.06 | 0.00 | 89 | 1010.9 |
| 20260502055045 | 42 | 300 | 2.0 | 5.0 | 0.00 | 0.06 | 0.00 | 89 | 1011.0 |
| 20260502054543 | 42 | 297 | 2.0 | 5.0 | 0.00 | 0.06 | 0.00 | 89 | 1011.1 |
| 20260502054042 | 42 | 298 | 1.0 | 5.0 | 0.00 | 0.06 | 0.00 | 89 | 1011.0 |
| 20260502053541 | 42 | 307 | 2.0 | 8.0 | 0.00 | 0.06 | 0.00 | 89 | 1011.3 |
| 20260502053042 | 42 | 298 | 3.0 | 8.0 | 0.00 | 0.06 | 0.00 | 89 | 1011.3 |
| 20260502052540 | 42 | 276 | 1.0 | 5.0 | 0.00 | 0.06 | 0.00 | 89 | 1011.1 |
| 20260502052040 | 42 | 280 | 1.0 | 5.0 | 0.00 | 0.06 | 0.00 | 89 | 1011.2 |
| 20260502051539 | 42 | 324 | 1.0 | 5.0 | 0.00 | 0.06 | 0.00 | 89 | 1011.2 |
| 20260502051041 | 42 | 294 | 2.0 | 5.0 | 0.00 | 0.06 | 0.00 | 89 | 1011.4 |
| 20260502050538 | 42 | 259 | 1.0 | 5.0 | 0.00 | 0.06 | 0.00 | 89 | 1011.4 |
| 20260502050046 | 42 | 277 | 2.0 | 9.0 | 0.00 | 0.06 | 0.00 | 90 | 1011.5 |
| 20260502045539 | 42 | 243 | 5.0 | 9.0 | 0.00 | 0.06 | 0.00 | 90 | 1011.4 |
| 20260502045035 | 42 | 267 | 1.0 | 4.0 | 0.01 | 0.06 | 0.00 | 90 | 1011.3 |
| 20260502044534 | 42 | 300 | 2.0 | 7.0 | 0.01 | 0.06 | 0.00 | 90 | 1011.4 |
| 20260502044034 | 42 | 292 | 2.0 | 7.0 | 0.01 | 0.06 | 0.00 | 90 | 1011.3 |
| 20260502043534 | 42 | 261 | 1.0 | 5.0 | 0.01 | 0.06 | 0.00 | 90 | 1011.3 |
| 20260502043042 | 42 | 282 | 2.0 | 7.0 | 0.01 | 0.06 | 0.00 | 90 | 1011.4 |
| 20260502042533 | 42 | 271 | 3.0 | 7.0 | 0.01 | 0.06 | 0.00 | 90 | 1011.3 |
| 20260502042033 | 42 | 283 | 1.0 | 6.0 | 0.01 | 0.06 | 0.00 | 90 | 1011.2 |
| 20260502041539 | 42 | 274 | 2.0 | 7.0 | 0.01 | 0.06 | 0.00 | 90 | 1011.3 |